Regional Weather Roundup
Issued by NWS

Home | Current Version | Previous Version | Text Only | Print | Product List | Glossary On
Versions: 1 2 3 4 5 6 7 8 9 10 11 12 13 14 15 16 17 18 19 20 21 22 23 24 25 26 27 28 29 30 31 32 33 34 35 36 37 38 39 40 41 42 43 44 45 46 47 48 49 50
000
ASUS45 KBOU 290210
RWRCO

WEATHER ROUNDUP FOR COLORADO
NATIONAL WEATHER SERVICE DENVER/BOULDER CO
800 PM MDT TUE JUL 28 2015

NOTE: "FAIR" INDICATES FEW OR NO CLOUDS BELOW 12000 FEET WITH NO
SIGNIFICANT WEATHER AND/OR OBSTRUCTIONS TO VISIBILITY.

COZ001>005-013-030-031-290300-
...NORTHWEST COLORADO...

CITY           SKY/WX    TMP DP  RH WIND       PRES   REMARKS
CRAIG          CLEAR     73  32  22 W7        30.23R
HAYDEN         CLEAR     73  28  19 NE3       30.26R
MEEKER         CLEAR     75  31  19 N8        30.23S
MOUNT WERNER   NOT AVBL
STEAMBOAT SPGS CLEAR     71  33  24 CALM      30.28S
WALDEN         CLEAR     63  27  25 W9        30.37S
$$

COZ006>008-011-290300-
...WEST CENTRAL VALLEYS...

CITY           SKY/WX    TMP DP  RH WIND       PRES   REMARKS
GRAND JUNCTION CLEAR     84  25  11 NW9       30.07R
MONTROSE       PTCLDY    81  41  24 NW8       30.15R
EAGLE          CLEAR     81  25  12 W6        30.23R
RIFLE          CLEAR     81  32  17 N8        30.14R
DELTA          PTCLDY    89  25  10 NW3       30.09R
NUCLA          PTCLDY    79  28  15 NW7       30.18R
$$

COZ017>023-064>068-290300-
...SOUTHWEST COLORADO...

CITY           SKY/WX    TMP DP  RH WIND       PRES   REMARKS
DURANGO        PTCLDY    81  29  15 W10       30.18R
CORTEZ         CLEAR     81  31  16 SW5       30.14R
PAGOSA SPRINGS PTCLDY    78  31  18 W3        30.27S
TELLURIDE      PTCLDY    69  27  20 NW3       30.42S
WOLF CREEK PAS NOT AVBL
$$

COZ009-010-012-014-032>034-037-058>063-290300-
...CENTRAL COLORADO...

CITY           SKY/WX    TMP DP  RH WIND       PRES   REMARKS
ASPEN          CLEAR     68  36  30 W7        30.31R
BUENA VISTA    MOCLDY    74  32  21 S14G22    30.30R
COPPER MTN     PTCLDY    59  30  33 W18       30.66R
BERTHOUD PASS  FAIR      45  34  65 E15G26    30.71S
COTTONWOOD PAS PTCLDY    70  10  10 SW13G22   30.46R
GUNNISON       CLEAR     73  30  20 NW7       30.32R
KREMMLING      CLEAR     72  27  18 NW12G18   30.32R
LEADVILLE      PTCLDY    63  28  26 N6        30.47R
MONARCH PASS   PTCLDY    59  28  31 W15       30.74R
SALIDA         PTCLDY    76  37  24 SE13G24   30.33R
SUNLIGHT       CLEAR     59  28  31 CALM      30.58R
WILKERSON PASS PTCLDY    55  32  41 S7        30.62R
$$

COZ069>075-290300-
...SAN LUIS VALLEY/SANGRE DE CRISTO MOUNTAINS...

CITY           SKY/WX    TMP DP  RH WIND       PRES   REMARKS
ALAMOSA        MOCLDY    74  43  32 S7        30.21S
LA VETA PASS   CLOUDY    55  43  62 MISG      30.49R
SAGUACHE       CLOUDY    75  32  20 N9        30.28R
$$

COZ035-036-038>040-290300-
...NORTHERN COLORADO FRONT RANGE...

CITY           SKY/WX    TMP DP  RH WIND       PRES   REMARKS
DENVER INTL AP MOCLDY    77  32  19 E17       30.19R
DMNS CITY PARK   N/A     78  34  20 E17       30.18R
AURORA         NOT AVBL
FRONT RANGE AP MOCLDY    75  32  20 E16       30.20R
ERIE MUNI ARPT PTCLDY    78  35  20 E12       30.17R
BOULDER MUN AP LGT RAIN  77  41  27 CALM      30.20R
CENTENNIAL     MOCLDY    75  41  29 E14G23    30.20R
BROOMFIELD     MOCLDY    81  37  21 E15       30.20R
FORT COLLINS   PTCLDY    79  39  24 E15       30.16R
LONGMONT       CLOUDY    78  46  32 E10       30.19R
$$

COZ041-046-047-076>085-087-088-290300-
...PIKES PEAK/PALMER DIVIDE AND SOUTHERN FOOTHILLS...

CITY           SKY/WX    TMP DP  RH WIND       PRES   REMARKS
COLO. SPRINGS  PTCLDY    75  38  26 SE14      30.23R
A. F. ACADEMY  PTCLDY    75  36  24 SE15G26   30.24R
ELLICOTT       PTCLDY   N/A N/A N/A SE14      30.24R
FALCON         PTCLDY    68  40  36 SE12      30.30R
FORT CARSON    PTCLDY    75  40  27 SE10      30.20R
LIMON          CLEAR     68  46  45 E9        30.22R
MONUMENT HILL  PTCLDY    64  41  42 E12       30.30R
TRINIDAD       MOCLDY    75  46  35 SE6       30.19R
$$

COZ042>045-048>051-090-091-290300-
...NORTHEAST COLORADO...

CITY           SKY/WX    TMP DP  RH WIND       PRES   REMARKS
GREELEY ARPT   PTCLDY    75  39  27 E10       30.17R
AKRON          CLEAR     72  38  29 E9        30.19R
BURLINGTON     CLEAR     72  48  42 NE7       30.15R
WRAY           CLEAR     74  46  36 NE6       30.13R
STERLING       NOT AVBL
HOLYOKE        CLEAR     73  43  33 E6        30.14R
FORT MORGAN    CLEAR     69  37  30 NE7       30.18R
$$

COZ086-089-092>099-290300-
...SOUTHEAST COLORADO...

CITY           SKY/WX    TMP DP  RH WIND       PRES   REMARKS
PUEBLO         MOCLDY    85  39  19 E18G26    30.10R
LA JUNTA       MOCLDY    82  44  26 E14       30.11R
LAMAR          MOCLDY    80  52  37 E9        30.08R
SPRINGFIELD      N/A     73  56  54 SE5       30.14R
$$


USA.gov is the U.S. government's official web portal to all federal, state and local government web resources and services.